GW6128 Weather Reports


Display with metric or nautical units.
time (UTC)temp
F
wind
direction
speed
MPH
gust
MPH
rain 1hr
in
rain 24hr
in
rain mn
in
humidity
%
barometer
mb
20260505193105 54 41 4.0 8.0 0.00 0.00 0.00 73 1010.8
20260505191547 54 75 4.0 7.0 0.00 0.00 0.00 69 1010.6
20260505190053 54 60 2.0 7.0 0.00 0.00 0.00 67 1010.4
20260505184553 55 79 2.0 6.0 0.00 0.00 0.00 67 1010.3
20260505183052 55 87 4.0 11.0 0.00 0.00 0.00 64 1010.2
20260505181545 56 62 5.0 9.0 0.00 0.00 0.00 61 1010.3
20260505180052 56 51 2.0 5.0 0.00 0.00 0.00 70 1010.3
20260505174552 57 88 2.0 6.0 0.00 0.00 0.00 73 1010.2
20260505173047 57 26 1.0 5.0 0.00 0.00 0.00 73 1010.1
20260505171551 57 71 2.0 6.0 0.00 0.00 0.00 72 1010.2
20260505170046 57 127 4.0 10.0 0.00 0.00 0.00 70 1010.4
20260505164553 59 108 2.0 9.0 0.00 0.00 0.00 68 1010.4
20260505163052 59 67 2.0 8.0 0.00 0.00 0.00 65 1010.3
20260505161551 59 108 5.0 11.0 0.00 0.00 0.00 63 1010.3
20260505153102 57 110 3.0 8.0 0.00 0.00 0.00 74 1010.6
20260505151549 57 84 2.0 10.0 0.00 0.00 0.00 74 1010.5
20260505124559 60 190 4.0 9.0 0.00 0.00 0.00 63 1011.0
20260505123107 60 131 4.0 10.0 0.00 0.00 0.00 64 1010.9
20260505121551 60 163 4.0 9.0 0.00 0.00 0.00 62 1010.9
20260505120056 60 72 5.0 10.0 0.00 0.00 0.00 63 1010.8
20260505114550 60 161 2.0 6.0 0.00 0.00 0.00 63 1010.9
20260505113054 60 156 3.0 8.0 0.00 0.00 0.00 62 1011.0
20260505111552 60 103 2.0 8.0 0.00 0.00 0.00 58 1011.1
20260505101553 59 66 4.0 9.0 0.00 0.00 0.00 60 1011.5
20260505100053 59 169 1.0 8.0 0.00 0.00 0.00 64 1011.4
20260505094555 58 58 3.0 8.0 0.00 0.00 0.00 65 1011.4
20260505093052 57 87 2.0 6.0 0.00 0.00 0.00 68 1011.4
20260505091613 56 62 2.0 6.0 0.00 0.00 0.00 73 1011.5
20260505090119 55 79 1.0 4.0 0.00 0.00 0.00 76 1011.6
20260505084611 54 110 1.0 5.0 0.00 0.00 0.00 78 1011.8
20260505083104 53 79 1.0 7.0 0.00 0.00 0.00 79 1011.8
20260505081557 53 72 2.0 8.0 0.00 0.00 0.00 79 1011.9
20260505080059 53 89 3.0 7.0 0.00 0.00 0.00 79 1011.8
20260505074549 53 79 4.0 7.0 0.00 0.00 0.00 80 1011.8
20260505073054 52 59 4.0 9.0 0.00 0.00 0.00 82 1011.8
20260505071610 52 58 3.0 6.0 0.00 0.00 0.00 83 1011.9
20260505070052 51 29 2.0 6.0 0.00 0.00 0.00 88 1012.1
20260505064551 50 67 3.0 6.0 0.00 0.00 0.00 88 1012.0
20260505063053 50 76 1.0 5.0 0.00 0.00 0.00 89 1012.0
20260505061547 50 84 2.0 5.0 0.00 0.00 0.00 89 1012.0
20260505060100 50 53 0.0 3.0 0.00 0.00 0.00 88 1012.0
20260505054553 51 60 0.0 3.0 0.00 0.00 0.00 88 1012.2
20260505053051 50 0 0.0 0.0 0.00 0.00 0.00 90 1012.1
20260505051550 49 0 0.0 0.0 0.00 0.00 0.00 91 1012.1
20260505041554 49 0 0.0 0.0 0.00 0.00 0.00 91 1012.2
20260505040049 49 0 0.0 1.0 0.00 0.00 0.00 90 1012.2
20260505034548 50 84 0.0 2.0 0.00 0.00 0.00 90 1012.1
20260505033049 50 0 0.0 2.0 0.00 0.00 0.00 89 1012.3
20260505031551 50 51 0.0 3.0 0.00 0.00 0.00 89 1012.4
20260505030119 50 57 1.0 5.0 0.00 0.00 0.00 89 1012.5
20260505024559 51 63 1.0 6.0 0.00 0.00 0.00 89 1012.6
20260505023052 51 72 0.0 4.0 0.00 0.00 0.00 89 1012.5
20260505021552 51 68 1.0 5.0 0.00 0.00 0.00 89 1012.4
20260505020100 51 87 1.0 4.0 0.00 0.00 0.00 89 1012.4
20260505014603 51 64 1.0 2.0 0.00 0.00 0.00 89 1012.7
20260505013055 51 79 1.0 4.0 0.00 0.00 0.00 89 1012.7
20260505011546 51 70 1.0 7.0 0.00 0.00 0.00 89 1013.1
20260505010058 52 0 1.0 6.0 0.00 0.00 0.00 89 1012.9
20260505004552 52 90 2.0 6.0 0.00 0.00 0.00 89 1013.0
20260505003056 52 81 3.0 7.0 0.00 0.00 0.00 89 1013.1
20260505001545 52 79 2.0 6.0 0.00 0.00 0.00 90 1013.2
20260505000057 52 68 2.0 6.0 0.00 0.00 0.00 90 1013.3
20260504234550 52 0 2.0 7.0 0.00 0.00 0.00 90 1013.4
20260504233047 52 65 4.0 7.0 0.00 0.00 0.00 90 1013.5
20260504231551 52 53 3.0 6.0 0.00 0.00 0.00 90 1013.5
20260504230053 53 77 1.0 4.0 0.00 0.00 0.00 90 1013.5
20260504224556 53 63 1.0 8.0 0.00 0.00 0.00 90 1013.4
20260504223110 53 73 4.0 8.0 0.00 0.00 0.00 90 1013.3
20260504221551 53 72 1.0 6.0 0.00 0.00 0.00 90 1013.5
20260504220058 53 99 1.0 5.0 0.00 0.00 0.00 91 1013.6
20260504214557 53 48 2.0 6.0 0.00 0.00 0.00 91 1013.6
20260504213056 53 92 4.0 9.0 0.00 0.00 0.00 92 1013.7
20260504211634 53 59 2.0 8.0 0.00 0.00 0.00 92 1013.7
20260504210055 54 63 2.0 6.0 0.00 0.00 0.00 92 1013.5
20260504204558 54 64 3.0 6.0 0.00 0.00 0.00 91 1013.5
20260504203052 54 127 2.0 6.0 0.00 0.00 0.00 91 1013.5
20260504201604 55 70 0.0 4.0 0.00 0.00 0.00 91 1013.5
20260504200054 55 66 0.0 3.0 0.00 0.00 0.00 91 1013.3
20260504194555 55 51 0.0 4.0 0.00 0.00 0.00 91 1013.1